Location: Spring Creek
(38.2870°N, 100.2160°W)
Time: 17:07:21
(UTC+00:00)

Meteor 2-15 - Pass Details

Date: 29 September 2021
Orbit: 937 x 954 km, 82.5° (Epoch: 19 October)

Event Time Altitude Azimuth Distance (km) Brightness Sun altitude
Exits shadow 10:24:35 18° 326° (NW) 2,171 6.2 -26.1°
Drops below altitude 10° 10:26:34 10° 341° (NNW) 2,674 6.8 -25.7°
Sets 10:29:35 0° 355° (N) 3,627 7.6 -25.1°
